[[{"header":{"parameterUnit":"m.s-1","parameterCategory":1,"la1":30.2991,"la2":30.254,"lo1":-89.0895,"lo2":-89.0444,"dy":0.0017,"dx":0.0017,"nx":28,"ny":28,"refTime":"2024-10-14T21:00:00:Z","depth":0,"parameterNumber":2,"parameterNumberName":"U-component_of_WINDS"},"data":[0,0,0,0,0,0,0,0,0,0,0,0,0,0,0,0,0,0,0,0,0,0,0,0,0,0,0,0,0,0,0,0,0,0,0,0,0,0,0,0,0,0,0,0,0,0,0,0,0,0,0,0,0,0,0,0,0,0,-0.483,-0.4831,0,-0.4908,-0.4909,-0.491,-0.4953,-0.4953,-0.4953,-0.4953,-0.5032,-0.5034,-0.5036,0,0,0,0,0,0,0,0,0,0,0,0,0,-0.4716,-0.4718,-0.483,-0.4831,-0.4832,-0.4908,-0.4909,-0.491,-0.4953,-0.4953,-0.4953,-0.4953,-0.5032,-0.5034,-0.5036,0,0,0,0,0,0,0,0,0,0,0,0,0,-0.4777,-0.4718,-0.4829,-0.4862,-0.4866,-0.4908,-0.4909,-0.491,-0.4953,-0.4953,-0.4953,-0.4954,-0.5031,-0.5034,-0.5037,-0.5051,0,0,-0.5046,-0.5047,0,0,0,0,0,0,0,0,-0.4773,-0.4781,-0.4856,-0.486,-0.4864,-0.4921,-0.4898,-0.4957,-0.4953,-0.492,-0.4953,-0.4954,-0.4995,-0.5001,-0.5015,-0.5055,-0.5058,-0.5046,-0.5048,-0.5049,-0.505,0,0,0,0,0,0,0,-0.4769,-0.4778,-0.4861,-0.4858,-0.4862,-0.4873,-0.4881,-0.4909,-0.4955,-0.4923,-0.4926,-0.4935,-0.4997,-0.5012,-0.5017,-0.5059,-0.5046,-0.5049,-0.505,-0.5052,-0.5114,-0.5114,0,0,0,0,0,0,-0.476,-0.4774,-0.4858,-0.4863,-0.4818,-0.4874,-0.4884,-0.4903,-0.4955,-0.4963,-0.4935,-0.4937,-0.5007,-0.5014,-0.502,-0.504,-0.5049,-0.5052,-0.5054,-0.5114,-0.5114,-0.5114,0,0,0,0,0,0,-0.4757,-0.4767,-0.4855,-0.4819,-0.4831,-0.4876,-0.4896,-0.4904,-0.4919,-0.4964,-0.4972,-0.4942,-0.5007,-0.5016,-0.5043,-0.5044,-0.5053,-0.5056,-0.5114,-0.5114,-0.5114,-0.508,0,0,0,0,0,0,-0.4754,-0.4766,-0.4772,-0.4819,-0.4833,-0.4877,-0.4896,-0.4905,-0.4924,-0.4928,-0.4973,-0.4981,-0.5008,-0.5038,-0.5046,-0.5048,-0.5058,-0.5115,-0.5114,-0.5114,-0.5082,-0.5079,-0.5077,0,0,0,0,0,-0.4749,-0.4759,-0.4772,-0.4782,-0.4842,-0.4877,-0.4885,-0.4917,-0.4924,-0.4931,-0.4959,-0.4979,-0.5042,-0.5041,-0.505,-0.5052,-0.5115,-0.5114,-0.5114,-0.5083,-0.508,-0.5077,0,0,0,0,0,0,-0.4711,-0.4766,-0.4781,-0.4807,-0.4837,-0.4884,-0.4893,-0.4912,-0.4941,-0.4943,-0.4981,-0.4991,-0.5014,-0.5036,-0.5033,-0.5069,-0.5081,-0.5082,-0.5054,-0.5051,-0.5049,-0.5043,-0.5061,0,0,0,0,0,-0.4705,-0.4729,-0.4776,-0.4794,-0.4809,-0.4848,-0.4864,-0.4886,-0.4919,-0.4932,-0.4963,-0.4993,-0.502,-0.5037,-0.5064,-0.5085,-0.5095,-0.5091,-0.5089,-0.5087,-0.5088,-0.51,-0.5098,-0.5113,-0.5113,-0.5113,0,0,-0.4694,-0.4727,-0.474,-0.4787,-0.4813,-0.4836,-0.4859,-0.4883,-0.49,-0.4935,-0.4963,-0.4986,-0.5023,-0.5047,-0.5059,-0.5066,-0.5086,-0.5086,-0.5084,-0.5086,-0.5099,-0.5098,-0.5097,-0.5113,-0.5113,-0.5113,0,0,-0.4686,-0.4713,-0.4731,-0.4757,-0.4796,-0.4822,-0.4826,-0.487,-0.4887,-0.4916,-0.4942,-0.4963,-0.5009,-0.5034,-0.5052,-0.5052,-0.5071,-0.506,-0.5047,-0.5059,-0.5057,-0.5057,-0.5056,-0.5055,-0.506,-0.506,-0.506,0,-0.4667,-0.4703,-0.4738,-0.476,-0.478,-0.4813,-0.4831,-0.4854,-0.4899,-0.4912,-0.4919,-0.4976,-0.5003,-0.5033,-0.5033,-0.5047,-0.5052,-0.5055,-0.5055,-0.5054,-0.5054,-0.5054,-0.5054,-0.5059,-0.5059,-0.5059,-0.5059,0,-0.4678,-0.4703,-0.4712,-0.4756,-0.4776,-0.4796,-0.4833,-0.485,-0.487,-0.4895,-0.4922,-0.4956,-0.499,-0.4999,-0.5019,-0.5031,-0.5034,-0.5048,-0.506,-0.505,-0.5051,-0.5051,-0.5056,-0.5057,-0.5057,-0.5058,0,0,-0.4648,-0.4709,-0.4712,-0.4732,-0.4777,-0.4797,-0.4818,-0.4851,-0.4865,-0.4895,-0.4913,-0.495,-0.4963,-0.4984,-0.5006,-0.5016,-0.5013,-0.5029,-0.503,-0.5024,-0.5029,-0.5018,-0.5017,-0.5026,-0.5027,-0.5027,-0.5026,0,-0.4645,-0.4685,-0.4716,-0.4744,-0.4767,-0.4798,-0.4817,-0.4846,-0.487,-0.4892,-0.4919,-0.4944,-0.4959,-0.4972,-0.4983,-0.5011,-0.5015,-0.5012,-0.5043,-0.5044,-0.5033,-0.5018,-0.5007,-0.5004,-0.5026,-0.5026,-0.5026,0,-0.4648,-0.4677,-0.4707,-0.4749,-0.476,-0.4776,-0.4809,-0.483,-0.4863,-0.488,-0.4903,-0.4927,-0.4949,-0.496,-0.4992,-0.4989,-0.5003,-0.5019,-0.502,-0.5024,-0.5034,-0.5021,-0.5004,-0.5003,-0.5027,-0.5027,-0.5027,0,-0.4622,-0.4669,-0.4693,-0.4708,-0.4758,-0.4768,-0.479,-0.4823,-0.4841,-0.487,-0.4882,-0.4913,-0.4929,-0.4952,-0.4983,-0.4988,-0.5012,-0.5025,-0.5026,-0.5025,-0.5029,-0.5028,-0.5014,-0.5039,-0.5039,-0.5039,-0.5039,0,-0.4616,-0.4633,-0.4681,-0.4696,-0.4716,-0.4751,-0.4769,-0.4793,-0.4822,-0.4842,-0.4871,-0.4888,-0.4928,-0.495,-0.4975,-0.4997,-0.5005,-0.5018,-0.5024,-0.5015,-0.5013,-0.5025,-0.5026,-0.5039,-0.5039,-0.5039,-0.5039,0,-0.4591,-0.4624,-0.4652,-0.4696,-0.4708,-0.472,-0.4758,-0.4773,-0.4799,-0.4822,-0.483,-0.487,-0.4897,-0.493,-0.4969,-0.4985,-0.5005,-0.5014,-0.4993,-0.4997,-0.4996,-0.4995,-0.4988,-0.4988,-0.5013,-0.5013,-0.5013,0,-0.4584,-0.4598,-0.4644,-0.4659,-0.4679,-0.4703,-0.4722,-0.4757,-0.4774,-0.4813,-0.4823,-0.4853,-0.4878,-0.4921,-0.4953,-0.4982,-0.4992,-0.4988,-0.4997,-0.4987,-0.4991,-0.499,-0.4991,-0.4985,-0.4985,-0.4984,-0.4984,0,-0.457,-0.4585,-0.4611,-0.4642,-0.4663,-0.4689,-0.4716,-0.4727,-0.4767,-0.4785,-0.4814,-0.4833,-0.4872,-0.4901,-0.4934,-0.4956,-0.4976,-0.4981,-0.4982,-0.4973,-0.496,-0.4966,-0.4986,-0.4981,-0.4981,-0.4981,-0.4981,-0.4982,-0.4553,-0.4567,-0.4601,-0.4628,-0.4652,-0.4677,-0.4693,-0.472,-0.4744,-0.4778,-0.4798,-0.4825,-0.4858,-0.4904,-0.4925,-0.4947,-0.4954,-0.4957,-0.4957,-0.4957,-0.4954,-0.4957,-0.4953,-0.4953,-0.4953,-0.4953,-0.4954,0,-0.4539,-0.4563,-0.4587,-0.4625,-0.4646,-0.4663,-0.4694,-0.4711,-0.4735,-0.4763,-0.4788,-0.482,-0.4848,-0.4882,-0.4912,-0.4923,-0.4933,-0.4929,-0.4929,-0.4933,-0.4946,-0.4941,-0.4921,-0.4921,-0.4921,-0.4921,-0.4921,-0.4921,-0.4535,-0.4558,-0.4577,-0.4612,-0.4636,-0.4663,-0.4679,-0.4702,-0.4725,-0.4759,-0.4782,-0.4804,-0.4835,-0.4868,-0.4894,-0.4903,-0.4912,-0.4906,-0.4918,-0.4929,-0.4932,-0.4935,-0.4931,-0.4908,-0.4908,-0.4903,-0.4903,-0.4903]},{"header":{"parameterUnit":"m.s-1","parameterCategory":1,"la1":30.2991,"la2":30.254,"lo1":-89.0895,"lo2":-89.0444,"dy":0.0017,"dx":0.0017,"nx":28,"ny":28,"refTime":"2024-10-14T21:00:00:Z","depth":0,"parameterNumber":3,"parameterNumberName":"V-component_of_WINDS"},"data":[0,0,0,0,0,0,0,0,0,0,0,0,0,0,0,0,0,0,0,0,0,0,0,0,0,0,0,0,0,0,0,0,0,0,0,0,0,0,0,0,0,0,0,0,0,0,0,0,0,0,0,0,0,0,0,0,0,0,2.3451,2.3451,0,2.3513,2.3514,2.3515,2.3577,2.3578,2.3579,2.358,2.3642,2.3643,2.3644,0,0,0,0,0,0,0,0,0,0,0,0,0,2.3385,2.3386,2.3451,2.3451,2.3452,2.3513,2.3514,2.3515,2.3577,2.3578,2.3579,2.358,2.3642,2.3643,2.3644,0,0,0,0,0,0,0,0,0,0,0,0,0,2.3427,2.3386,2.345,2.3491,2.3495,2.3513,2.3514,2.3515,2.3577,2.3578,2.3579,2.3581,2.3642,2.3643,2.3644,2.3627,0,0,2.3648,2.3649,0,0,0,0,0,0,0,0,2.3425,2.343,2.3484,2.3488,2.3493,2.3539,2.3514,2.3553,2.3577,2.3546,2.358,2.3581,2.3607,2.3611,2.362,2.363,2.3633,2.3648,2.3649,2.365,2.365,0,0,0,0,0,0,0,2.3422,2.3427,2.3475,2.3485,2.349,2.3506,2.3513,2.3522,2.3568,2.3549,2.3553,2.356,2.3609,2.3618,2.3622,2.3634,2.3648,2.3649,2.365,2.3651,2.3636,2.3635,0,0,0,0,0,0,2.3413,2.3424,2.3473,2.3477,2.3461,2.3506,2.3514,2.3523,2.3568,2.3577,2.3559,2.3563,2.3616,2.362,2.3624,2.3609,2.365,2.3651,2.3652,2.3637,2.3636,2.3634,0,0,0,0,0,0,2.3411,2.3417,2.3471,2.3452,2.346,2.3506,2.3515,2.3523,2.3533,2.3576,2.3585,2.3559,2.3617,2.3622,2.3627,2.3612,2.3651,2.3653,2.3638,2.3637,2.3635,2.3577,0,0,0,0,0,0,2.3409,2.3416,2.3409,2.3452,2.3461,2.3472,2.3514,2.3524,2.3535,2.354,2.3579,2.3587,2.3618,2.3624,2.3628,2.3614,2.3654,2.364,2.3638,2.3635,2.358,2.3573,2.3567,0,0,0,0,0,2.3406,2.339,2.3409,2.3414,2.3454,2.3471,2.3476,2.3513,2.3533,2.3528,2.3556,2.3586,2.3613,2.3624,2.3629,2.3615,2.3641,2.3638,2.3636,2.3583,2.3575,2.3568,0,0,0,0,0,0,2.3343,2.3396,2.3417,2.3414,2.3438,2.3481,2.3475,2.3503,2.3521,2.3525,2.357,2.3578,2.3578,2.3597,2.3609,2.3603,2.3631,2.3629,2.359,2.3582,2.3576,2.3571,2.3655,0,0,0,0,0,2.3329,2.3338,2.3384,2.3376,2.3387,2.3429,2.3438,2.3464,2.3491,2.3501,2.3529,2.3553,2.3568,2.3576,2.3592,2.3584,2.3594,2.3577,2.3571,2.3565,2.3563,2.3562,2.3556,2.3626,2.3626,2.3626,0,0,2.3299,2.3329,2.3332,2.3364,2.3386,2.3395,2.3437,2.3444,2.3451,2.3502,2.3508,2.353,2.356,2.3559,2.356,2.3575,2.3546,2.3562,2.3557,2.3558,2.3559,2.3552,2.3547,2.3624,2.3624,2.3624,0,0,2.325,2.3273,2.327,2.3292,2.3324,2.3353,2.3352,2.3393,2.341,2.3417,2.3455,2.3465,2.3488,2.3509,2.3522,2.3484,2.3512,2.3487,2.3453,2.3452,2.3447,2.3442,2.343,2.3425,2.3485,2.3485,2.3485,0,2.3208,2.3224,2.3265,2.3271,2.3284,2.3332,2.333,2.3348,2.3384,2.3392,2.3409,2.3442,2.3465,2.347,2.3461,2.347,2.3471,2.3483,2.3444,2.344,2.3436,2.3425,2.342,2.3482,2.3482,2.3482,2.3483,0,2.3172,2.3182,2.3176,2.3211,2.3224,2.3225,2.3268,2.3276,2.3302,2.3329,2.3337,2.3367,2.3391,2.3394,2.3419,2.3403,2.3412,2.3436,2.3466,2.3426,2.3416,2.3412,2.3477,2.3478,2.3479,2.348,0,0,2.3082,2.3142,2.3139,2.3157,2.3198,2.3206,2.3211,2.3235,2.3242,2.3266,2.3271,2.3291,2.3315,2.333,2.3358,2.3357,2.3327,2.3381,2.3383,2.3371,2.3313,2.3295,2.3289,2.3346,2.3345,2.3345,2.3311,0,2.3041,2.3052,2.309,2.309,2.3101,2.3148,2.3152,2.3178,2.3204,2.3217,2.3246,2.326,2.3289,2.3299,2.33,2.333,2.3316,2.3333,2.3352,2.3352,2.3343,2.3284,2.3265,2.3231,2.3307,2.3307,2.3306,0,2.2992,2.3015,2.3016,2.3059,2.3065,2.3068,2.3095,2.3107,2.3137,2.3157,2.3175,2.3207,2.3216,2.3243,2.3256,2.3267,2.3278,2.3294,2.3294,2.3297,2.3327,2.3286,2.3221,2.3217,2.33,2.3301,2.3301,0,2.2928,2.2959,2.2964,2.2977,2.3027,2.3029,2.3049,2.3082,2.3095,2.3118,2.3127,2.315,2.3163,2.3181,2.3219,2.3235,2.3228,2.3259,2.3245,2.3244,2.3241,2.324,2.3177,2.3247,2.3247,2.3247,2.3247,0,2.2878,2.2877,2.2936,2.2939,2.2941,2.2986,2.2985,2.3011,2.304,2.3049,2.3091,2.3099,2.3148,2.3162,2.3192,2.3199,2.3205,2.3221,2.3229,2.3217,2.3215,2.3225,2.3228,2.3245,2.3246,2.3246,2.3246,0,2.2806,2.2845,2.2855,2.2902,2.2914,2.2913,2.2954,2.2959,2.2988,2.3,2.3005,2.3051,2.307,2.311,2.314,2.316,2.316,2.3174,2.315,2.3155,2.314,2.3141,2.308,2.3075,2.3147,2.3146,2.3145,0,2.2771,2.2772,2.282,2.283,2.2849,2.2864,2.2878,2.2923,2.2936,2.2973,2.2974,2.2997,2.3017,2.3045,2.3082,2.3105,2.312,2.3098,2.3124,2.3113,2.3121,2.3121,2.3122,2.3091,2.309,2.309,2.3089,0,2.2705,2.2725,2.2744,2.277,2.2786,2.2809,2.2833,2.2839,2.289,2.2902,2.2923,2.2939,2.2971,2.2993,2.3022,2.3044,2.3075,2.3081,2.3079,2.3067,2.3054,2.3062,2.3135,2.3082,2.3082,2.3083,2.3083,2.3084,2.2651,2.2655,2.269,2.271,2.2734,2.2757,2.2765,2.2797,2.2815,2.2844,2.287,2.2889,2.2922,2.2965,2.2985,2.3001,2.3016,2.3013,2.3013,2.3011,2.3007,2.3051,2.3006,2.3007,2.3007,2.3007,2.3007,0,2.2588,2.2614,2.2632,2.2667,2.2683,2.2712,2.2742,2.2753,2.2769,2.2798,2.2818,2.2843,2.2866,2.2905,2.2931,2.2936,2.2951,2.2942,2.2942,2.2947,2.2991,2.2991,2.2929,2.2929,2.2929,2.2929,2.2929,2.2929,2.2558,2.2566,2.2591,2.2613,2.2638,2.2658,2.2673,2.2694,2.2718,2.2744,2.2764,2.2789,2.2823,2.2852,2.2875,2.2886,2.2894,2.288,2.2895,2.2936,2.2943,2.295,2.295,2.2881,2.2881,2.285,2.2849,2.2849]}]]